Temperature
2 1 0 0 -1 -1 -3 -4 -4 -4 -3 -3 -3 -4 -5 -6 -6 -7 -7 -7 -7 -7 -7 -7 -6 -6 -6 -6 -6 -5 -5 -5 -4 -4 -4 -3 -3 -2
1 1 -0 -1 -1 -2 -3 -4 -5 -5 -5 -4 -5 -5 -6 -6 -6 -7 -7 -7 -7 -7 -7 -7 -7 -7 -7 -6 -6 -6 -6 -5 -5 -4 -4 -4 -3 -3
0 -0 -1 -2 -2 -3 -4 -5 -6 -6 -6 -5 -6 -6 -6 -7 -7 -7 -7 -7 -7 -7 -7 -7 -7 -7 -7 -7 -7 -6 -6 -6 -5 -5 -5 -4 -4 -3
-1 -1 -2 -3 -3 -4 -5 -6 -6 -7 -7 -7 -7 -7 -7 -7 -7 -7 -7 -7 -7 -7 -7 -7 -7 -7 -7 -7 -7 -7 -6 -6 -6 -6 -5 -5 -5 -4
-1 -2 -3 -4 -4 -5 -6 -7 -7 -7 -8 -8 -7 -7 -7 -7 -7 -7 -7 -7 -8 -8 -8 -8 -8 -7 -7 -7 -7 -7 -7 -7 -7 -6 -6 -6 -6 -5
-2 -3 -3 -5 -5 -6 -7 -7 -8 -8 -8 -8 -8 -7 -7 -7 -7 -7 -8 -8 -8 -8 -8 -8 -8 -8 -7 -7 -7 -7 -7 -7 -7 -7 -7 -7 -6 -6
-3 -4 -5 -5 -6 -7 -8 -8 -8 -8 -8 -8 -8 -8 -7 -8 -8 -8 -8 -8 -8 -8 -8 -8 -8 -8 -8 -8 -7 -7 -7 -8 -8 -8 -7 -7 -7 -6
-4 -5 -6 -6 -7 -8 -8 -9 -9 -9 -8 -8 -8 -8 -8 -8 -8 -9 -9 -9 -9 -8 -8 -8 -8 -8 -8 -8 -7 -7 -7 -8 -8 -7 -7 -7 -7 -6
-5 -6 -7 -7 -8 -9 -9 -9 -9 -8 -8 -8 -9 -9 -9 -9 -9 -9 -9 -9 -9 -9 -9 -9 -8 -8 -8 -8 -7 -7 -7 -7 -7 -7 -7 -7 -7 -6
-5 -7 -7 -8 -9 -9 -9 -9 -9 -9 -9 -9 -9 -9 -9 -9 -9 -9 -10 -10 -10 -9 -9 -9 -8 -8 -8 -8 -7 -6 -6 -6 -6 -6 -6 -6 -6 -6
-7 -7 -8 -9 -9 -9 -9 -9 -9 -9 -9 -9 -9 -9 -9 -9 -9 -10 -10 -10 -10 -9 -9 -9 -9 -9 -9 -8 -6 -6 -6 -5 -5 -6 -6 -6 -6 -6
-8 -8 -8 -9 -9 -9 -9 -9 -9 -9 -9 -10 -9 -9 -9 -9 -9 -10 -10 -11 -11 -10 -9 -10 -10 -10 -10 -8 -7 -6 -5 -4 -5 -5 -5 -5 -5 -6
-9 -9 -9 -9 -9 -9 -9 -10 -10 -10 -10 -10 -9 -9 -9 -9 -9 -9 -9 -10 -11 -10 -9 -10 -11 -11 -11 -10 -7 -6 -5 -5 -5 -5 -5 -5 -5 -5
-9 -9 -9 -9 -9 -9 -9 -9 -10 -10 -10 -9 -9 -9 -9 -8 -8 -8 -8 -8 -8 -8 -7 -9 -10 -10 -11 -10 -9 -6 -5 -6 -6 -5 -5 -5 -4 -4
-10 -10 -9 -9 -9 -9 -9 -9 -9 -9 -10 -10 -10 -9 -8 -8 -8 -8 -7 -7 -7 -7 -7 -8 -9 -9 -10 -10 -9 -8 -6 -5 -5 -5 -5 -5 -4 -4
-10 -9 -9 -9 -9 -9 -9 -9 -9 -10 -10 -10 -9 -8 -8 -8 -8 -8 -8 -8 -8 -6 -6 -7 -8 -8 -9 -8 -8 -7 -6 -6 -5 -5 -5 -4 -4 -4
-10 -10 -10 -10 -9 -9 -9 -9 -9 -9 -9 -9 -9 -9 -8 -8 -8 -8 -8 -9 -9 -8 -7 -6 -7 -7 -7 -7 -6 -5 -6 -6 -5 -5 -4 -4 -3 -3
-10 -10 -10 -10 -10 -10 -9 -9 -9 -9 -9 -9 -8 -8 -8 -8 -8 -8 -8 -9 -9 -8 -8 -7 -7 -7 -6 -5 -5 -5 -6 -6 -5 -4 -4 -4 -3 -3
-10 -10 -10 -10 -10 -10 -9 -9 -9 -8 -8 -8 -8 -8 -8 -8 -8 -8 -8 -8 -8 -8 -8 -7 -8 -8 -7 -7 -5 -4 -5 -6 -5 -5 -4 -4 -3 -3
-10 -10 -10 -10 -10 -9 -9 -9 -9 -8 -8 -8 -8 -8 -8 -8 -8 -8 -8 -8 -9 -8 -8 -7 -7 -7 -7 -7 -6 -4 -5 -5 -5 -5 -4 -3 -3 -3
-10 -10 -10 -9 -9 -9 -9 -9 -8 -8 -8 -8 -8 -8 -8 -8 -8 -8 -8 -8 -8 -8 -8 -7 -6 -6 -6 -6 -6 -5 -4 -4 -5 -5 -4 -4 -4 -3
-10 -9 -9 -9 -9 -9 -8 -8 -8 -8 -8 -8 -8 -8 -8 -8 -8 -8 -8 -8 -8 -8 -8 -7 -6 -6 -6 -6 -6 -6 -5 -4 -4 -4 -4 -4 -4 -4
-10 -9 -9 -9 -8 -8 -8 -8 -8 -8 -8 -8 -8 -8 -8 -8 -8 -8 -8 -8 -8 -8 -7 -7 -6 -6 -5 -5 -5 -5 -5 -5 -5 -5 -4 -4 -4 -4
Wind_Speed
4 5 6 6 6 7 8 9 11 15 17 15 10 11 14 17 20 21 23 27 30 32 34 35 35 35 35 35 35 35 35 35 35 35 36 36 37 37
4 6 7 6 7 8 9 10 11 14 17 13 15 16 16 16 22 23 23 28 30 31 32 33 34 35 36 36 36 36 36 36 36 36 36 36 37 37
6 7 8 9 8 9 9 10 12 13 18 18 16 17 20 20 19 20 21 22 22 28 31 33 34 35 35 35 35 35 35 35 35 35 36 36 36 36
7 8 9 8 11 10 10 12 12 14 16 21 19 17 21 20 20 20 18 19 20 27 31 32 33 34 34 34 34 35 35 35 35 35 35 36 36 36
8 9 10 11 12 11 13 13 13 14 15 18 20 18 17 17 20 19 20 18 18 22 27 28 30 32 33 34 35 35 34 34 34 34 35 35 35 36
9 9 11 12 13 14 13 14 14 16 17 17 18 18 18 19 18 18 18 17 17 17 21 23 27 30 31 32 33 33 33 33 33 33 34 34 35 35
10 10 11 13 16 15 14 15 16 16 16 16 17 18 18 18 18 17 18 18 19 17 18 17 18 18 20 25 28 30 31 32 32 33 34 34 34 35
11 12 12 13 15 19 21 21 21 19 18 18 17 19 22 20 18 17 18 19 20 15 17 19 18 19 18 17 25 31 32 33 34 34 34 35 35 35
12 12 11 12 17 15 18 22 22 24 23 20 21 21 21 20 20 21 20 21 21 18 18 21 19 19 18 19 30 32 33 34 34 34 34 34 35 35
12 13 14 15 15 17 19 19 19 19 20 18 18 20 20 20 20 20 21 20 20 17 17 19 19 19 19 18 27 31 32 32 32 32 33 33 34 34
13 14 15 16 19 22 20 19 20 18 18 21 23 25 28 28 23 16 16 15 17 17 15 15 17 18 19 19 20 25 27 29 30 31 32 32 32 32
12 13 16 17 21 23 19 18 20 18 18 19 20 20 19 19 20 15 13 14 15 13 11 10 14 14 11 11 13 16 19 24 28 29 29 30 31 22
12 12 13 19 23 25 23 18 19 20 18 17 16 15 14 13 13 12 12 12 14 14 13 12 13 14 12 13 17 17 17 16 17 19 24 27 29 24
13 13 14 23 25 25 19 18 22 20 13 12 12 13 13 13 13 15 16 16 16 19 20 18 15 16 17 19 17 15 16 17 17 17 15 21 24 28
13 18 22 24 22 17 17 20 17 11 10 11 12 13 13 14 14 14 16 15 17 18 17 18 17 16 16 18 18 19 19 18 14 13 15 15 15 14
14 17 21 20 16 16 15 12 10 10 11 12 13 13 13 13 13 13 13 14 13 15 14 14 16 17 16 18 18 18 17 13 14 17 16 15 13 11
16 13 11 11 11 10 11 11 10 10 11 11 12 13 13 13 13 12 12 13 13 15 16 14 13 13 16 17 17 16 15 15 15 16 15 14 12 10
15 10 10 10 11 11 12 12 12 11 11 12 12 12 12 13 14 13 12 12 13 14 15 15 15 15 13 9 12 13 13 14 15 16 14 13 11 9
10 9 9 10 11 11 11 12 13 13 12 12 12 12 12 13 13 13 13 12 13 14 14 14 13 12 15 15 9 7 11 15 15 14 13 12 11 10
8 9 10 11 11 11 12 12 13 13 12 12 12 12 12 12 13 13 13 13 14 14 14 13 12 12 12 12 10 13 15 14 13 13 12 11 9 9
10 10 10 11 11 12 12 12 13 13 13 12 12 13 12 12 12 12 13 17 15 13 14 14 14 18 13 10 11 11 11 13 15 13 12 11 10 9
10 11 11 12 12 12 12 12 12 13 13 12 12 12 12 12 13 14 13 13 12 12 14 14 14 13 10 10 13 14 14 14 14 15 14 15 10 9
11 12 12 12 12 11 11 13 14 13 13 12 12 12 12 12 12 12 12 12 12 13 13 13 12 11 11 11 12 12 14 15 12 11 11 19 21 19
Wind_Direction
289 289 287 288 286 285 285 287 292 299 301 301 298 298 298 296 295 294 293 293 294 293 293 293 293 293 292 291 290 288 286 283 281 279 276 274 271 269
292 293 296 293 293 289 286 285 283 286 291 293 300 300 302 296 294 294 293 293 291 290 290 291 291 291 291 290 289 287 285 282 280 277 275 273 270 268
293 294 297 299 296 293 291 287 285 286 289 295 299 301 300 299 298 297 295 294 293 292 292 292 292 291 290 289 288 286 285 283 281 278 276 274 272 270
299 298 297 300 296 295 293 290 289 289 290 296 299 301 301 301 299 298 299 296 294 294 294 293 292 291 290 288 287 285 284 282 280 278 276 274 272 271
297 296 298 300 299 299 297 294 292 291 289 292 297 300 300 301 303 301 300 298 297 296 295 293 291 290 289 288 287 285 284 282 281 278 276 274 272 270
293 291 293 296 298 300 298 295 295 295 295 294 295 299 301 304 305 305 304 303 300 299 295 292 290 291 288 287 285 284 283 281 280 278 275 272 270 268
294 291 291 294 294 295 295 297 299 297 295 295 297 301 302 306 306 306 304 304 300 300 298 297 296 293 291 287 284 282 281 280 279 277 274 271 268 265
297 298 297 294 295 297 297 297 295 292 294 295 297 298 300 302 305 303 302 302 302 305 302 298 297 292 290 287 285 285 284 283 281 278 275 272 268 265
298 299 299 299 302 300 299 298 294 292 290 292 294 294 297 300 301 300 299 298 297 299 300 295 296 293 293 289 289 288 286 285 282 279 276 273 269 265
297 299 300 302 303 305 304 300 298 296 294 292 290 291 291 293 294 295 296 295 292 291 291 293 297 296 296 294 292 289 287 285 283 280 277 274 270 266
300 299 299 299 303 306 306 304 303 300 299 296 292 289 289 292 293 294 293 293 295 297 297 290 294 301 298 293 289 289 289 288 286 283 280 276 272 268
304 301 300 302 306 309 308 307 304 306 307 303 298 295 293 292 292 285 286 288 292 297 295 295 298 308 303 290 294 298 297 293 290 287 284 279 275 271
306 305 304 308 309 310 310 305 302 305 303 301 300 299 299 297 296 295 290 284 284 281 287 298 293 294 287 292 299 297 294 294 295 292 288 282 277 271
305 305 306 309 311 312 310 305 306 307 301 300 300 299 301 302 301 299 294 287 276 276 281 284 282 283 286 288 294 297 297 296 294 290 287 285 282 274
304 305 308 310 313 311 307 308 309 304 301 300 299 299 300 299 299 298 297 293 287 281 277 274 273 277 278 282 286 293 299 300 295 293 295 292 285 279
311 309 309 309 309 306 307 308 305 300 301 298 298 299 300 300 299 300 302 305 302 299 291 280 277 278 280 282 284 289 293 293 299 303 302 297 291 279
316 309 309 312 314 314 313 310 309 307 306 302 300 300 301 301 301 303 301 301 297 301 307 308 298 287 279 279 283 285 293 300 304 307 309 305 301 294
317 307 309 312 312 313 312 311 310 309 306 304 301 299 299 301 302 303 302 300 299 301 303 308 312 312 310 290 254 276 296 307 312 313 311 312 309 307
312 307 308 308 307 306 305 304 304 305 304 300 298 298 298 298 299 301 302 302 302 302 303 306 309 313 317 320 303 279 304 314 318 319 320 319 316 317
313 308 306 305 304 303 302 301 301 303 302 300 298 297 296 297 298 299 300 301 303 304 306 309 311 314 312 303 298 302 307 316 323 324 325 322 317 317
312 308 305 302 300 299 298 298 298 298 298 298 296 296 296 296 295 296 298 300 303 304 308 309 308 309 305 295 300 310 318 324 324 327 333 332 334 337
309 306 303 300 299 297 297 297 297 296 298 296 295 295 295 294 294 296 297 301 303 304 305 306 309 314 314 311 315 319 325 330 331 333 344 357 352 346
306 304 302 300 298 296 296 295 295 295 294 294 294 294 295 295 294 294 296 298 302 306 310 313 318 321 318 315 317 322 331 338 341 345 348 352 356 0
Height
1479 1476 1473 1470 1467 1463 1460 1456 1452 1442 1436 1434 1432 1427 1423 1418 1412 1407 1401 1396 1391 1386 1381 1377 1373 1368 1365 1361 1358 1355 1353 1351 1349 1348 1346 1346 1345 1345
1474 1471 1468 1465 1461 1458 1454 1451 1447 1440 1431 1426 1424 1421 1416 1410 1405 1400 1394 1389 1383 1378 1373 1368 1364 1359 1355 1350 1347 1344 1341 1339 1337 1335 1334 1333 1332 1332
1469 1466 1463 1459 1456 1452 1449 1445 1441 1435 1426 1418 1417 1412 1408 1403 1398 1393 1387 1381 1375 1370 1364 1359 1354 1349 1344 1340 1336 1332 1329 1327 1325 1323 1321 1320 1319 1319
1465 1461 1458 1454 1450 1447 1443 1438 1434 1429 1423 1412 1407 1404 1400 1395 1390 1385 1379 1374 1367 1361 1355 1349 1344 1338 1333 1329 1324 1321 1317 1315 1312 1310 1308 1307 1306 1306
1460 1456 1452 1448 1445 1441 1437 1433 1428 1423 1418 1410 1401 1398 1393 1388 1383 1377 1372 1366 1359 1353 1346 1340 1334 1328 1323 1318 1313 1309 1305 1302 1299 1297 1295 1294 1293 1292
1454 1450 1446 1443 1439 1435 1431 1427 1423 1418 1412 1406 1398 1391 1386 1382 1377 1370 1363 1357 1351 1345 1338 1332 1326 1319 1313 1307 1302 1297 1292 1288 1285 1283 1281 1280 1279 1278
1449 1445 1441 1437 1433 1429 1425 1421 1417 1412 1406 1401 1394 1387 1381 1376 1371 1364 1357 1349 1343 1339 1330 1323 1318 1310 1303 1296 1290 1285 1281 1277 1273 1271 1268 1267 1265 1265
1443 1439 1435 1431 1427 1423 1419 1415 1411 1407 1401 1396 1389 1383 1376 1371 1365 1359 1352 1344 1334 1331 1325 1314 1310 1301 1294 1288 1281 1275 1270 1266 1262 1258 1255 1253 1252 1251
1437 1433 1429 1425 1421 1416 1412 1408 1404 1400 1396 1391 1384 1377 1371 1366 1360 1352 1346 1339 1330 1324 1318 1306 1300 1292 1285 1278 1271 1265 1259 1254 1250 1246 1243 1240 1238 1237
1432 1427 1423 1419 1415 1411 1406 1401 1397 1393 1388 1383 1377 1370 1365 1359 1354 1348 1340 1332 1323 1318 1314 1302 1292 1284 1276 1268 1260 1254 1249 1243 1238 1234 1230 1227 1225 1223
1426 1422 1418 1414 1410 1405 1401 1395 1389 1384 1380 1375 1369 1363 1357 1352 1347 1341 1333 1327 1317 1309 1306 1298 1287 1277 1266 1257 1250 1245 1239 1234 1228 1223 1218 1215 1212 1210
1421 1417 1413 1409 1404 1400 1395 1389 1382 1377 1371 1365 1360 1355 1350 1344 1340 1335 1328 1321 1313 1303 1296 1291 1282 1274 1258 1247 1243 1237 1231 1225 1219 1213 1208 1203 1199 1197
1416 1412 1407 1403 1398 1393 1389 1383 1376 1371 1365 1359 1353 1348 1343 1338 1333 1328 1322 1316 1308 1298 1291 1286 1277 1270 1263 1246 1234 1230 1224 1217 1210 1203 1197 1192 1187 1184
1410 1406 1401 1396 1391 1386 1380 1375 1370 1365 1359 1354 1348 1342 1336 1331 1325 1320 1314 1308 1301 1293 1285 1280 1272 1265 1257 1246 1233 1222 1217 1210 1203 1194 1188 1181 1176 1171
1405 1400 1395 1389 1384 1378 1374 1369 1364 1359 1354 1348 1342 1337 1331 1325 1319 1312 1306 1300 1293 1286 1279 1273 1267 1260 1253 1243 1231 1220 1211 1202 1196 1188 1181 1173 1165 1159
1399 1393 1388 1383 1378 1373 1368 1364 1359 1355 1350 1344 1338 1332 1325 1319 1313 1307 1299 1292 1284 1278 1274 1267 1261 1254 1246 1238 1229 1218 1210 1202 1191 1183 1174 1166 1158 1151
1393 1388 1383 1378 1373 1369 1364 1360 1355 1350 1345 1339 1333 1327 1321 1315 1308 1302 1295 1288 1281 1272 1265 1260 1255 1248 1241 1234 1224 1215 1207 1198 1189 1179 1169 1160 1152 1145
1388 1383 1379 1375 1370 1365 1360 1355 1351 1346 1340 1335 1329 1323 1317 1310 1304 1298 1292 1285 1278 1270 1263 1256 1248 1241 1234 1227 1221 1212 1204 1195 1185 1176 1167 1157 1147 1140
1384 1380 1376 1371 1366 1362 1357 1351 1346 1341 1336 1330 1325 1319 1313 1306 1300 1294 1288 1281 1275 1268 1261 1254 1248 1242 1234 1225 1216 1212 1203 1193 1184 1174 1165 1156 1146 1138
1381 1377 1372 1368 1363 1358 1353 1348 1343 1337 1332 1327 1321 1315 1309 1303 1297 1290 1285 1279 1272 1265 1258 1253 1247 1241 1235 1227 1217 1207 1202 1194 1184 1174 1164 1155 1146 1139
1377 1373 1369 1364 1360 1355 1350 1344 1339 1334 1328 1323 1317 1311 1306 1300 1293 1288 1282 1276 1270 1264 1257 1251 1245 1240 1233 1225 1217 1208 1200 1193 1185 1177 1167 1157 1148 1140
1374 1370 1366 1361 1356 1351 1346 1341 1335 1330 1324 1319 1313 1308 1302 1297 1291 1285 1279 1274 1268 1262 1256 1250 1243 1237 1231 1225 1217 1208 1199 1192 1185 1178 1170 1163 1155 1146
1372 1367 1362 1358 1353 1348 1342 1337 1331 1326 1321 1315 1310 1304 1299 1293 1288 1283 1277 1272 1267 1261 1255 1249 1243 1237 1231 1225 1218 1210 1202 1193 1186 1178 1172 1165 1158 1151